Time,TemperatureF,DewpointF,PressureIn,WindDirection,WindDirectionDegrees,WindSpeedMPH,WindSpeedGustMPH,Humidity,HourlyPrecipIn,Conditions,Clouds,dailyrainin,SoftwareType,DateUTC
2013-03-22 00:00:00,25.7,11.4,29.80,West,278,4.0,5.4,54,0.00,,---,0.00,VWS V14.01,2013-03-22 04:00:00,
2013-03-22 00:01:00,25.7,11.4,29.80,West,274,4.0,6.7,54,0.00,,---,0.00,VWS V14.01,2013-03-22 04:01:00,
2013-03-22 00:06:00,25.5,11.2,29.77,NNW,334,4.5,7.8,54,0.00,,---,0.00,VWS V14.01,2013-03-22 04:06:00,
2013-03-22 00:11:00,25.5,11.2,29.77,SW,226,9.6,11.6,54,0.00,,---,0.00,VWS V14.01,2013-03-22 04:11:00,
2013-03-22 00:16:00,25.5,11.2,29.77,West,275,4.9,6.7,54,0.00,,---,0.00,VWS V14.01,2013-03-22 04:16:00,
2013-03-22 00:21:00,25.5,12.4,29.80,NW,312,13.0,13.0,57,0.00,,---,0.00,VWS V14.01,2013-03-22 04:21:00,
2013-03-22 00:26:00,25.5,12.4,29.80,WSW,256,4.5,7.4,57,0.00,,---,0.00,VWS V14.01,2013-03-22 04:26:00,
2013-03-22 00:32:00,25.5,12.4,29.80,NNW,338,5.8,6.7,57,0.00,,---,0.00,VWS V14.01,2013-03-22 04:32:00,
2013-03-22 00:37:00,25.5,12.4,29.77,NW,306,6.9,9.2,57,0.00,,---,0.00,VWS V14.01,2013-03-22 04:37:00,
2013-03-22 00:42:00,25.5,12.4,29.77,WSW,251,2.7,6.3,57,0.00,,---,0.00,VWS V14.01,2013-03-22 04:42:00,
2013-03-22 00:47:00,25.5,13.2,29.77,WSW,242,4.9,5.8,59,0.00,,---,0.00,VWS V14.01,2013-03-22 04:47:00,
2013-03-22 00:52:00,25.5,13.2,29.77,West,265,3.6,6.3,59,0.00,,---,0.00,VWS V14.01,2013-03-22 04:52:00,
2013-03-22 00:57:00,25.3,13.0,29.77,NW,308,4.5,5.4,59,0.00,,---,0.00,VWS V14.01,2013-03-22 04:57:00,
2013-03-22 01:02:00,25.3,14.2,29.77,NW,319,6.3,6.3,62,0.00,,---,0.00,VWS V14.01,2013-03-22 05:02:00,
2013-03-22 01:07:00,25.3,14.2,29.77,West,271,8.7,8.7,62,0.00,,---,0.00,VWS V14.01,2013-03-22 05:07:00,
2013-03-22 01:12:00,25.5,14.3,29.77,NW,322,8.3,8.7,62,0.00,,---,0.00,VWS V14.01,2013-03-22 05:12:00,
2013-03-22 01:17:00,25.5,14.3,29.77,West,276,8.3,9.6,62,0.00,,---,0.00,VWS V14.01,2013-03-22 05:17:00,
2013-03-22 01:22:00,25.5,14.3,29.77,WSW,253,4.0,6.9,62,0.00,,---,0.00,VWS V14.01,2013-03-22 05:22:00,
2013-03-22 01:27:00,25.5,14.3,29.77,WNW,290,4.0,10.1,62,0.00,,---,0.00,VWS V14.01,2013-03-22 05:27:00,
2013-03-22 01:32:00,25.7,14.5,29.77,SW,216,5.4,8.3,62,0.00,,---,0.00,VWS V14.01,2013-03-22 05:32:00,
2013-03-22 01:37:00,25.9,14.7,29.77,West,270,7.4,7.4,62,0.00,,---,0.00,VWS V14.01,2013-03-22 05:37:00,
2013-03-22 01:42:00,26.1,14.8,29.77,WNW,292,8.7,8.7,62,0.00,,---,0.00,VWS V14.01,2013-03-22 05:42:00,
2013-03-22 01:47:00,26.1,14.8,29.77,NNW,346,6.3,8.7,62,0.00,,---,0.00,VWS V14.01,2013-03-22 05:47:00,
2013-03-22 01:52:00,26.2,15.0,29.77,NW,323,7.8,7.8,62,0.00,,---,0.00,VWS V14.01,2013-03-22 05:52:00,
2013-03-22 01:57:00,26.2,15.0,29.77,WNW,288,7.4,9.2,62,0.00,,---,0.00,VWS V14.01,2013-03-22 05:57:00,
2013-03-22 02:02:00,26.2,15.4,29.77,West,273,7.8,13.4,63,0.00,,---,0.00,VWS V14.01,2013-03-22 06:02:00,
2013-03-22 02:07:00,26.1,15.2,29.77,NNW,332,4.9,6.9,63,0.00,,---,0.00,VWS V14.01,2013-03-22 06:07:00,
2013-03-22 02:12:00,26.1,15.2,29.77,WNW,295,7.8,10.1,63,0.00,,---,0.00,VWS V14.01,2013-03-22 06:12:00,
2013-03-22 02:17:00,26.1,15.2,29.77,West,276,6.3,10.1,63,0.00,,---,0.00,VWS V14.01,2013-03-22 06:17:00,
2013-03-22 02:22:00,26.1,15.2,29.77,WSW,254,3.6,6.3,63,0.00,,---,0.00,VWS V14.01,2013-03-22 06:22:00,
2013-03-22 02:27:00,25.9,15.0,29.77,WSW,257,2.7,8.3,63,0.00,,---,0.00,VWS V14.01,2013-03-22 06:27:00,
2013-03-22 02:32:00,25.9,15.0,29.77,WSW,256,4.9,8.7,63,0.00,,---,0.00,VWS V14.01,2013-03-22 06:32:00,
2013-03-22 02:37:00,25.9,15.0,29.77,WNW,294,4.9,5.8,63,0.00,,---,0.00,VWS V14.01,2013-03-22 06:37:00,
2013-03-22 02:42:00,25.7,14.9,29.77,SW,223,4.0,7.8,63,0.00,,---,0.00,VWS V14.01,2013-03-22 06:42:00,
2013-03-22 02:47:00,25.7,15.2,29.77,NNW,337,7.8,7.8,64,0.00,,---,0.00,VWS V14.01,2013-03-22 06:47:00,
2013-03-22 02:52:00,25.5,15.1,29.77,NNW,337,3.6,5.8,64,0.00,,---,0.00,VWS V14.01,2013-03-22 06:52:00,
2013-03-22 02:57:00,25.5,15.1,29.77,North,351,2.7,3.6,64,0.00,,---,0.00,VWS V14.01,2013-03-22 06:57:00,
2013-03-22 03:02:00,25.3,14.5,29.77,North,351,2.7,4.9,63,0.00,,---,0.00,VWS V14.01,2013-03-22 07:02:00,
2013-03-22 03:07:00,25.3,14.5,29.77,WNW,297,5.4,8.7,63,0.00,,---,0.00,VWS V14.01,2013-03-22 07:07:00,
2013-03-22 03:12:00,25.2,14.4,29.77,WNW,287,4.5,7.4,63,0.00,,---,0.00,VWS V14.01,2013-03-22 07:12:00,
2013-03-22 03:17:00,25.2,14.7,29.77,NW,304,4.9,7.4,64,0.00,,---,0.00,VWS V14.01,2013-03-22 07:17:00,
2013-03-22 03:22:00,25.2,14.7,29.77,NW,321,11.0,13.4,64,0.00,,---,0.00,VWS V14.01,2013-03-22 07:22:00,
2013-03-22 03:27:00,25.2,14.7,29.77,West,264,5.8,6.3,64,0.00,,---,0.00,VWS V14.01,2013-03-22 07:27:00,
2013-03-22 03:32:00,25.2,14.7,29.77,North,351,3.6,5.4,64,0.00,,---,0.00,VWS V14.01,2013-03-22 07:32:00,
2013-03-22 03:37:00,25.2,15.1,29.77,NNW,330,2.7,6.7,65,0.00,,---,0.00,VWS V14.01,2013-03-22 07:37:00,
2013-03-22 03:42:00,25.3,15.2,29.77,WNW,300,6.7,11.2,65,0.00,,---,0.00,VWS V14.01,2013-03-22 07:42:00,
2013-03-22 03:47:00,25.3,15.2,29.77,WNW,291,9.2,9.2,65,0.00,,---,0.00,VWS V14.01,2013-03-22 07:47:00,
2013-03-22 03:52:00,25.5,15.4,29.77,WNW,282,4.5,6.7,65,0.00,,---,0.00,VWS V14.01,2013-03-22 07:52:00,
2013-03-22 03:57:00,25.5,15.4,29.77,SW,225,3.1,5.8,65,0.00,,---,0.00,VWS V14.01,2013-03-22 07:57:00,
2013-03-22 04:02:00,25.5,15.4,29.77,West,273,6.7,8.7,65,0.00,,---,0.00,VWS V14.01,2013-03-22 08:02:00,
2013-03-22 04:07:00,25.5,15.4,29.77,WNW,296,7.8,7.8,65,0.00,,---,0.00,VWS V14.01,2013-03-22 08:07:00,
2013-03-22 04:12:00,25.5,15.4,29.77,West,280,6.9,6.9,65,0.00,,---,0.00,VWS V14.01,2013-03-22 08:12:00,
2013-03-22 04:17:00,25.3,15.2,29.77,West,267,3.6,4.5,65,0.00,,---,0.00,VWS V14.01,2013-03-22 08:17:00,
2013-03-22 04:22:00,25.2,15.1,29.77,WNW,303,3.6,8.3,65,0.00,,---,0.00,VWS V14.01,2013-03-22 08:22:00,
2013-03-22 04:27:00,25.2,15.1,29.77,WNW,293,3.1,6.3,65,0.00,,---,0.00,VWS V14.01,2013-03-22 08:27:00,
2013-03-22 04:32:00,25.2,15.4,29.77,West,264,3.1,5.4,66,0.00,,---,0.00,VWS V14.01,2013-03-22 08:32:00,
2013-03-22 04:37:00,25.2,15.4,29.77,WNW,300,4.9,7.8,66,0.00,,---,0.00,VWS V14.01,2013-03-22 08:37:00,
2013-03-22 04:42:00,25.3,15.6,29.77,NNW,327,0.0,2.7,66,0.00,,---,0.00,VWS V14.01,2013-03-22 08:42:00,
2013-03-22 04:47:00,25.3,15.6,29.77,NNW,340,4.9,7.8,66,0.00,,---,0.00,VWS V14.01,2013-03-22 08:47:00,
2013-03-22 04:52:00,25.5,15.8,29.77,WNW,301,2.7,4.9,66,0.00,,---,0.00,VWS V14.01,2013-03-22 08:52:00,
2013-03-22 04:57:00,25.5,15.8,29.77,WNW,285,4.9,5.8,66,0.00,,---,0.00,VWS V14.01,2013-03-22 08:57:00,
2013-03-22 05:03:00,25.7,15.9,29.77,North,351,0.0,6.3,66,0.00,,---,0.00,VWS V14.01,2013-03-22 09:03:00,
2013-03-22 05:08:00,25.7,15.6,29.77,WNW,289,5.8,5.8,65,0.00,,---,0.00,VWS V14.01,2013-03-22 09:08:00,
2013-03-22 05:13:00,25.9,15.8,29.77,NNW,347,5.8,8.7,65,0.00,,---,0.00,VWS V14.01,2013-03-22 09:13:00,
2013-03-22 05:18:00,25.9,15.8,29.77,North,351,4.9,4.9,65,0.00,,---,0.00,VWS V14.01,2013-03-22 09:18:00,
2013-03-22 05:23:00,25.9,15.8,29.77,North,351,4.0,8.7,65,0.00,,---,0.00,VWS V14.01,2013-03-22 09:23:00,
2013-03-22 05:28:00,25.9,15.8,29.77,WNW,284,4.0,6.9,65,0.00,,---,0.00,VWS V14.01,2013-03-22 09:28:00,
2013-03-22 05:33:00,25.9,15.8,29.77,WNW,302,5.8,8.7,65,0.00,,---,0.00,VWS V14.01,2013-03-22 09:33:00,
2013-03-22 05:38:00,25.9,15.8,29.77,NNW,342,5.4,5.8,65,0.00,,---,0.00,VWS V14.01,2013-03-22 09:38:00,
2013-03-22 05:43:00,25.7,15.2,29.77,WNW,298,5.8,9.6,64,0.00,,---,0.00,VWS V14.01,2013-03-22 09:43:00,
2013-03-22 05:48:00,25.7,15.6,29.77,NW,316,5.8,6.9,65,0.00,,---,0.00,VWS V14.01,2013-03-22 09:48:00,
2013-03-22 05:53:00,25.5,15.4,29.77,North,351,0.0,7.4,65,0.00,,---,0.00,VWS V14.01,2013-03-22 09:53:00,
2013-03-22 05:58:00,25.5,15.4,29.77,NW,322,5.4,9.2,65,0.00,,---,0.00,VWS V14.01,2013-03-22 09:58:00,
2013-03-22 06:03:00,25.5,15.4,29.77,North,351,3.1,6.7,65,0.00,,---,0.00,VWS V14.01,2013-03-22 10:03:00,
2013-03-22 06:08:00,25.5,15.4,29.77,WNW,288,4.5,5.4,65,0.00,,---,0.00,VWS V14.01,2013-03-22 10:08:00,
2013-03-22 06:13:00,25.3,15.2,29.77,WNW,302,4.9,7.4,65,0.00,,---,0.00,VWS V14.01,2013-03-22 10:13:00,
2013-03-22 06:18:00,25.3,15.2,29.77,NW,325,4.9,5.8,65,0.00,,---,0.00,VWS V14.01,2013-03-22 10:18:00,
2013-03-22 06:23:00,25.3,15.2,29.77,WNW,283,9.2,10.5,65,0.00,,---,0.00,VWS V14.01,2013-03-22 10:23:00,
2013-03-22 06:28:00,25.2,15.1,29.77,NNW,344,5.4,5.4,65,0.00,,---,0.00,VWS V14.01,2013-03-22 10:28:00,
2013-03-22 06:33:00,25.2,15.1,29.77,WSW,241,3.1,6.7,65,0.00,,---,0.00,VWS V14.01,2013-03-22 10:33:00,
2013-03-22 06:38:00,25.2,15.1,29.80,North,351,4.5,6.9,65,0.00,,---,0.00,VWS V14.01,2013-03-22 10:38:00,
2013-03-22 06:43:00,25.2,15.1,29.80,West,280,6.7,10.5,65,0.00,,---,0.00,VWS V14.01,2013-03-22 10:43:00,
2013-03-22 06:48:00,25.2,15.1,29.80,WNW,288,6.3,6.9,65,0.00,,---,0.00,VWS V14.01,2013-03-22 10:48:00,
2013-03-22 06:53:00,25.0,14.9,29.80,NW,317,6.9,6.9,65,0.00,,---,0.00,VWS V14.01,2013-03-22 10:53:00,
2013-03-22 06:58:00,25.0,14.9,29.80,NW,304,8.3,8.7,65,0.00,,---,0.00,VWS V14.01,2013-03-22 10:58:00,
2013-03-22 07:03:00,25.0,14.9,29.80,WSW,252,7.4,8.3,65,0.00,,---,0.00,VWS V14.01,2013-03-22 11:03:00,
2013-03-22 07:08:00,25.2,15.1,29.80,NW,312,0.0,6.9,65,0.00,,---,0.00,VWS V14.01,2013-03-22 11:08:00,
2013-03-22 07:13:00,25.2,15.1,29.80,North,351,3.6,4.5,65,0.00,,---,0.00,VWS V14.01,2013-03-22 11:13:00,
2013-03-22 07:18:00,25.2,15.1,29.80,NNW,340,4.9,7.8,65,0.00,,---,0.00,VWS V14.01,2013-03-22 11:18:00,
2013-03-22 07:23:00,25.5,15.8,29.80,WSW,238,10.5,14.3,66,0.00,,---,0.00,VWS V14.01,2013-03-22 11:23:00,
2013-03-22 07:28:00,25.7,15.9,29.80,NNW,334,6.9,6.9,66,0.00,,---,0.00,VWS V14.01,2013-03-22 11:28:00,
2013-03-22 07:33:00,25.9,15.8,29.80,NW,325,4.5,6.7,65,0.00,,---,0.00,VWS V14.01,2013-03-22 11:33:00,
2013-03-22 07:38:00,26.1,15.9,29.83,WNW,295,7.4,9.2,65,0.00,,---,0.00,VWS V14.01,2013-03-22 11:38:00,
2013-03-22 07:43:00,26.2,16.1,29.83,WNW,294,8.3,11.0,65,0.00,,---,0.00,VWS V14.01,2013-03-22 11:43:00,
2013-03-22 07:48:00,26.6,16.4,29.83,NW,319,6.7,12.1,65,0.00,,---,0.00,VWS V14.01,2013-03-22 11:48:00,
2013-03-22 07:53:00,27.0,16.8,29.83,WNW,295,4.9,7.8,65,0.00,,---,0.00,VWS V14.01,2013-03-22 11:53:00,
2013-03-22 07:58:00,27.1,17.0,29.83,WSW,247,11.6,13.4,65,0.00,,---,0.00,VWS V14.01,2013-03-22 11:58:00,
2013-03-22 08:03:00,27.5,17.3,29.83,WNW,293,5.4,8.3,65,0.00,,---,0.00,VWS V14.01,2013-03-22 12:03:00,
2013-03-22 08:07:00,27.5,16.9,29.83,WNW,293,7.4,11.2,64,0.00,,---,0.00,VWS V14.01,2013-03-22 12:07:00,
2013-03-22 08:12:00,27.7,16.7,29.83,NW,325,7.8,11.0,63,0.00,,---,0.00,VWS V14.01,2013-03-22 12:12:00,
2013-03-22 08:17:00,28.0,17.5,29.83,NNW,331,8.3,9.2,64,0.00,,---,0.00,VWS V14.01,2013-03-22 12:17:00,
2013-03-22 08:22:00,28.6,17.6,29.83,NW,318,5.8,11.2,63,0.00,,---,0.00,VWS V14.01,2013-03-22 12:22:00,
2013-03-22 08:27:00,29.1,18.1,29.83,WNW,295,7.4,7.4,63,0.00,,---,0.00,VWS V14.01,2013-03-22 12:27:00,
2013-03-22 08:32:00,30.2,19.1,29.83,NNW,347,6.3,6.3,63,0.00,,---,0.00,VWS V14.01,2013-03-22 12:32:00,
2013-03-22 08:37:00,31.1,19.6,29.83,West,277,5.4,8.3,62,0.00,,---,0.00,VWS V14.01,2013-03-22 12:37:00,
2013-03-22 08:42:00,32.2,20.6,29.83,West,275,0.0,7.4,62,0.00,,---,0.00,VWS V14.01,2013-03-22 12:42:00,
2013-03-22 08:47:00,32.7,20.4,29.83,West,264,5.4,12.5,60,0.00,,---,0.00,VWS V14.01,2013-03-22 12:47:00,
2013-03-22 08:52:00,32.9,19.4,29.83,NW,322,4.9,11.6,57,0.00,,---,0.00,VWS V14.01,2013-03-22 12:52:00,
2013-03-22 08:57:00,33.6,20.0,29.83,WNW,284,13.0,13.0,57,0.00,,---,0.00,VWS V14.01,2013-03-22 12:57:00,
2013-03-22 09:02:00,34.0,19.5,29.83,NNW,345,9.6,16.3,55,0.00,,---,0.00,VWS V14.01,2013-03-22 13:02:00,
2013-03-22 09:07:00,34.0,18.2,29.83,NW,317,7.4,9.2,52,0.00,,---,0.00,VWS V14.01,2013-03-22 13:07:00,
2013-03-22 09:13:00,34.5,20.0,29.83,WNW,296,4.9,12.5,55,0.00,,---,0.00,VWS V14.01,2013-03-22 13:13:00,
2013-03-22 09:18:00,35.1,19.2,29.83,WNW,284,6.9,10.5,52,0.00,,---,0.00,VWS V14.01,2013-03-22 13:18:00,
2013-03-22 09:23:00,35.2,19.4,29.83,NW,317,15.9,17.2,52,0.00,,---,0.00,VWS V14.01,2013-03-22 13:23:00,
2013-03-22 09:28:00,35.1,17.8,29.83,NW,323,12.1,15.4,49,0.00,,---,0.00,VWS V14.01,2013-03-22 13:28:00,
2013-03-22 09:33:00,35.1,17.8,29.83,North,9,9.2,10.1,49,0.00,,---,0.00,VWS V14.01,2013-03-22 13:33:00,
2013-03-22 09:38:00,35.2,18.0,29.83,WNW,303,9.6,9.6,49,0.00,,---,0.00,VWS V14.01,2013-03-22 13:38:00,
2013-03-22 09:43:00,35.1,17.8,29.83,NW,315,11.0,13.0,49,0.00,,---,0.00,VWS V14.01,2013-03-22 13:43:00,
2013-03-22 09:48:00,34.5,17.8,29.83,NW,325,7.8,7.8,50,0.00,,---,0.00,VWS V14.01,2013-03-22 13:48:00,
2013-03-22 09:53:00,34.2,17.5,29.83,NW,308,8.3,12.1,50,0.00,,---,0.00,VWS V14.01,2013-03-22 13:53:00,
2013-03-22 09:58:00,34.7,17.5,29.83,NNW,335,9.2,10.1,49,0.00,,---,0.00,VWS V14.01,2013-03-22 13:58:00,
2013-03-22 10:03:00,35.2,18.0,29.83,NW,326,12.5,12.5,49,0.00,,---,0.00,VWS V14.01,2013-03-22 14:03:00,
2013-03-22 10:08:00,35.1,17.8,29.83,NW,304,6.3,6.3,49,0.00,,---,0.00,VWS V14.01,2013-03-22 14:08:00,
2013-03-22 10:13:00,35.6,18.3,29.83,NW,307,8.7,11.2,49,0.00,,---,0.00,VWS V14.01,2013-03-22 14:13:00,
2013-03-22 10:18:00,36.0,18.7,29.83,SW,231,8.3,8.3,49,0.00,,---,0.00,VWS V14.01,2013-03-22 14:18:00,
2013-03-22 10:23:00,36.1,18.8,29.83,WNW,298,6.3,6.3,49,0.00,,---,0.00,VWS V14.01,2013-03-22 14:23:00,
2013-03-22 10:28:00,35.8,18.5,29.83,NW,321,7.8,7.8,49,0.00,,---,0.00,VWS V14.01,2013-03-22 14:28:00,
2013-03-22 10:33:00,35.6,18.3,29.83,NW,304,9.6,9.6,49,0.00,,---,0.00,VWS V14.01,2013-03-22 14:33:00,
2013-03-22 10:38:00,36.5,19.2,29.83,WNW,287,5.4,11.6,49,0.00,,---,0.00,VWS V14.01,2013-03-22 14:38:00,
2013-03-22 10:43:00,36.3,19.0,29.83,NW,305,9.6,13.0,49,0.00,,---,0.00,VWS V14.01,2013-03-22 14:43:00,
2013-03-22 10:48:00,36.7,19.3,29.83,WNW,301,6.3,18.6,49,0.00,,---,0.00,VWS V14.01,2013-03-22 14:48:00,
2013-03-22 10:53:00,36.9,19.5,29.83,North,3,5.4,11.0,49,0.00,,---,0.00,VWS V14.01,2013-03-22 14:53:00,
2013-03-22 10:58:00,37.2,18.4,29.83,NNE,19,8.3,13.0,46,0.00,,---,0.00,VWS V14.01,2013-03-22 14:58:00,
2013-03-22 11:03:00,36.3,18.0,29.83,NW,319,5.4,9.6,47,0.00,,---,0.00,VWS V14.01,2013-03-22 15:03:00,
2013-03-22 11:08:00,36.1,17.9,29.83,NW,323,4.0,8.3,47,0.00,,---,0.00,VWS V14.01,2013-03-22 15:08:00,
2013-03-22 11:13:00,36.3,18.0,29.83,NNW,330,12.1,12.5,47,0.00,,---,0.00,VWS V14.01,2013-03-22 15:13:00,
2013-03-22 11:18:00,36.1,17.9,29.83,NW,308,13.4,15.2,47,0.00,,---,0.00,VWS V14.01,2013-03-22 15:18:00,
2013-03-22 11:23:00,36.7,17.9,29.83,NNW,333,8.3,13.4,46,0.00,,---,0.00,VWS V14.01,2013-03-22 15:23:00,
2013-03-22 11:28:00,38.1,20.7,29.83,NW,313,4.9,11.2,49,0.00,,---,0.00,VWS V14.01,2013-03-22 15:28:00,
2013-03-22 11:33:00,38.8,19.8,29.83,NW,306,8.3,8.3,46,0.00,,---,0.00,VWS V14.01,2013-03-22 15:33:00,
2013-03-22 11:38:00,38.5,19.5,29.83,North,2,6.3,9.2,46,0.00,,---,0.00,VWS V14.01,2013-03-22 15:38:00,
2013-03-22 11:43:00,37.4,18.5,29.83,WSW,246,7.4,15.4,46,0.00,,---,0.00,VWS V14.01,2013-03-22 15:43:00,
2013-03-22 11:48:00,36.7,17.9,29.83,NNE,14,8.3,10.1,46,0.00,,---,0.00,VWS V14.01,2013-03-22 15:48:00,
2013-03-22 11:53:00,36.9,18.0,29.83,West,273,6.3,7.8,46,0.00,,---,0.00,VWS V14.01,2013-03-22 15:53:00,
2013-03-22 11:58:00,36.9,18.0,29.83,NW,312,10.1,16.3,46,0.00,,---,0.00,VWS V14.01,2013-03-22 15:58:00,
2013-03-22 12:03:00,36.5,17.7,29.83,NW,315,7.8,11.0,46,0.00,,---,0.00,VWS V14.01,2013-03-22 16:03:00,
2013-03-22 12:08:00,36.3,18.0,29.83,NNW,346,4.0,8.7,47,0.00,,---,0.00,VWS V14.01,2013-03-22 16:08:00,
2013-03-22 12:13:00,36.3,18.0,29.83,WNW,300,4.9,11.0,47,0.00,,---,0.00,VWS V14.01,2013-03-22 16:13:00,
2013-03-22 12:18:00,36.3,18.0,29.83,North,351,6.3,10.5,47,0.00,,---,0.00,VWS V14.01,2013-03-22 16:18:00,
2013-03-22 12:23:00,36.3,18.0,29.83,NW,324,4.5,10.5,47,0.00,,---,0.00,VWS V14.01,2013-03-22 16:23:00,
2013-03-22 12:28:00,36.3,18.0,29.83,NW,304,11.0,11.0,47,0.00,,---,0.00,VWS V14.01,2013-03-22 16:28:00,
2013-03-22 12:33:00,36.5,18.2,29.83,NW,323,11.0,11.2,47,0.00,,---,0.00,VWS V14.01,2013-03-22 16:33:00,
2013-03-22 12:38:00,36.3,18.0,29.86,South,185,4.9,8.3,47,0.00,,---,0.00,VWS V14.01,2013-03-22 16:38:00,
2013-03-22 12:43:00,36.1,17.9,29.86,North,351,6.9,12.1,47,0.00,,---,0.00,VWS V14.01,2013-03-22 16:43:00,
2013-03-22 12:48:00,36.3,18.0,29.86,WNW,290,4.5,8.3,47,0.00,,---,0.00,VWS V14.01,2013-03-22 16:48:00,
2013-03-22 12:53:00,36.7,17.9,29.83,WNW,303,6.7,10.1,46,0.00,,---,0.00,VWS V14.01,2013-03-22 16:53:00,
2013-03-22 12:58:00,36.5,17.7,29.83,NW,306,6.3,9.2,46,0.00,,---,0.00,VWS V14.01,2013-03-22 16:58:00,
2013-03-22 13:03:00,36.5,18.2,29.83,WNW,284,10.1,10.1,47,0.00,,---,0.00,VWS V14.01,2013-03-22 17:03:00,
2013-03-22 13:08:00,36.3,18.0,29.83,WNW,301,5.4,13.0,47,0.00,,---,0.00,VWS V14.01,2013-03-22 17:08:00,
2013-03-22 13:13:00,36.3,18.0,29.83,NW,306,10.5,14.8,47,0.00,,---,0.00,VWS V14.01,2013-03-22 17:13:00,
2013-03-22 13:18:00,36.5,18.2,29.83,NW,305,5.8,7.4,47,0.00,,---,0.00,VWS V14.01,2013-03-22 17:18:00,
2013-03-22 13:23:00,36.9,18.0,29.83,NW,305,5.8,10.1,46,0.00,,---,0.00,VWS V14.01,2013-03-22 17:23:00,
2013-03-22 13:28:00,37.2,18.4,29.83,NW,319,4.9,9.2,46,0.00,,---,0.00,VWS V14.01,2013-03-22 17:28:00,
2013-03-22 13:33:00,37.9,19.0,29.83,NW,318,5.8,6.7,46,0.00,,---,0.00,VWS V14.01,2013-03-22 17:33:00,
2013-03-22 13:38:00,38.5,19.5,29.83,NW,317,6.7,9.6,46,0.00,,---,0.00,VWS V14.01,2013-03-22 17:38:00,
2013-03-22 13:43:00,38.5,19.5,29.83,NNW,333,12.1,12.1,46,0.00,,---,0.00,VWS V14.01,2013-03-22 17:43:00,
2013-03-22 13:48:00,38.5,19.5,29.83,NNW,336,6.3,9.6,46,0.00,,---,0.00,VWS V14.01,2013-03-22 17:48:00,
2013-03-22 13:53:00,38.7,19.7,29.83,North,356,6.9,6.9,46,0.00,,---,0.00,VWS V14.01,2013-03-22 17:53:00,
2013-03-22 13:58:00,39.0,20.0,29.83,WNW,289,4.0,5.8,46,0.00,,---,0.00,VWS V14.01,2013-03-22 17:58:00,
2013-03-22 14:03:00,38.8,19.8,29.83,North,8,4.9,4.9,46,0.00,,---,0.00,VWS V14.01,2013-03-22 18:03:00,
2013-03-22 14:08:00,38.7,19.7,29.83,NW,324,6.9,6.9,46,0.00,,---,0.00,VWS V14.01,2013-03-22 18:08:00,
2013-03-22 14:13:00,38.8,19.8,29.83,WNW,301,6.7,6.7,46,0.00,,---,0.00,VWS V14.01,2013-03-22 18:13:00,
2013-03-22 14:18:00,39.4,20.3,29.83,West,272,6.3,6.3,46,0.00,,---,0.00,VWS V14.01,2013-03-22 18:18:00,
2013-03-22 14:23:00,39.6,20.5,29.83,WNW,301,9.2,9.2,46,0.00,,---,0.00,VWS V14.01,2013-03-22 18:23:00,
2013-03-22 14:28:00,39.2,20.2,29.83,NW,315,7.4,7.4,46,0.00,,---,0.00,VWS V14.01,2013-03-22 18:28:00,
2013-03-22 14:33:00,38.8,19.8,29.83,NW,312,7.4,7.4,46,0.00,,---,0.00,VWS V14.01,2013-03-22 18:33:00,
2013-03-22 14:38:00,39.0,20.0,29.83,West,276,6.3,6.3,46,0.00,,---,0.00,VWS V14.01,2013-03-22 18:38:00,
2013-03-22 14:43:00,39.2,20.2,29.83,NNW,334,6.7,12.1,46,0.00,,---,0.00,VWS V14.01,2013-03-22 18:43:00,
2013-03-22 14:48:00,38.8,19.8,29.83,WSW,248,13.0,13.0,46,0.00,,---,0.00,VWS V14.01,2013-03-22 18:48:00,
2013-03-22 14:53:00,38.3,19.4,29.83,WNW,300,12.5,14.3,46,0.00,,---,0.00,VWS V14.01,2013-03-22 18:53:00,
2013-03-22 14:58:00,37.9,19.0,29.83,NW,304,7.8,11.0,46,0.00,,---,0.00,VWS V14.01,2013-03-22 18:58:00,
2013-03-22 15:03:00,38.1,19.2,29.83,West,279,9.2,9.2,46,0.00,,---,0.00,VWS V14.01,2013-03-22 19:03:00,
2013-03-22 15:08:00,38.3,19.4,29.83,NW,318,6.9,12.5,46,0.00,,---,0.00,VWS V14.01,2013-03-22 19:08:00,
2013-03-22 15:13:00,38.3,19.4,29.83,NNW,342,6.3,9.6,46,0.00,,---,0.00,VWS V14.01,2013-03-22 19:13:00,
2013-03-22 15:18:00,38.1,19.2,29.83,NW,304,9.6,11.6,46,0.00,,---,0.00,VWS V14.01,2013-03-22 19:18:00,
2013-03-22 15:22:00,37.9,19.0,29.83,West,275,11.6,13.0,46,0.00,,---,0.00,VWS V14.01,2013-03-22 19:22:00,
2013-03-22 15:27:00,37.9,19.0,29.83,NW,325,8.3,13.4,46,0.00,,---,0.00,VWS V14.01,2013-03-22 19:27:00,
2013-03-22 15:32:00,37.8,18.9,29.83,NNW,328,8.3,15.2,46,0.00,,---,0.00,VWS V14.01,2013-03-22 19:32:00,
2013-03-22 15:37:00,37.9,19.0,29.83,East,89,6.9,11.2,46,0.00,,---,0.00,VWS V14.01,2013-03-22 19:37:00,
2013-03-22 15:42:00,38.1,19.2,29.83,West,272,9.2,9.2,46,0.00,,---,0.00,VWS V14.01,2013-03-22 19:42:00,
2013-03-22 15:47:00,38.5,19.5,29.83,NNW,336,6.3,10.5,46,0.00,,---,0.00,VWS V14.01,2013-03-22 19:47:00,
2013-03-22 15:52:00,38.8,19.8,29.83,NW,309,9.2,12.1,46,0.00,,---,0.00,VWS V14.01,2013-03-22 19:52:00,
2013-03-22 15:57:00,39.2,20.2,29.83,WNW,294,9.2,15.9,46,0.00,,---,0.00,VWS V14.01,2013-03-22 19:57:00,
2013-03-22 16:02:00,39.2,20.2,29.83,West,272,6.7,9.2,46,0.00,,---,0.00,VWS V14.01,2013-03-22 20:02:00,
2013-03-22 16:07:00,39.0,20.0,29.83,WNW,290,7.8,12.5,46,0.00,,---,0.00,VWS V14.01,2013-03-22 20:07:00,
2013-03-22 16:12:00,38.7,19.7,29.83,North,2,5.8,9.6,46,0.00,,---,0.00,VWS V14.01,2013-03-22 20:12:00,
2013-03-22 16:17:00,38.5,19.5,29.83,NW,307,9.2,10.1,46,0.00,,---,0.00,VWS V14.01,2013-03-22 20:17:00,
2013-03-22 16:22:00,38.5,19.5,29.83,NW,305,11.0,11.6,46,0.00,,---,0.00,VWS V14.01,2013-03-22 20:22:00,
2013-03-22 16:27:00,38.1,19.2,29.83,West,273,14.8,17.7,46,0.00,,---,0.00,VWS V14.01,2013-03-22 20:27:00,
2013-03-22 16:32:00,37.9,19.0,29.83,WNW,284,8.7,11.6,46,0.00,,---,0.00,VWS V14.01,2013-03-22 20:32:00,
2013-03-22 16:37:00,37.9,19.0,29.83,WNW,296,15.9,16.3,46,0.00,,---,0.00,VWS V14.01,2013-03-22 20:37:00,
2013-03-22 16:42:00,37.8,18.9,29.83,West,281,9.6,11.6,46,0.00,,---,0.00,VWS V14.01,2013-03-22 20:42:00,
2013-03-22 16:47:00,37.6,18.7,29.83,WSW,241,8.7,9.6,46,0.00,,---,0.00,VWS V14.01,2013-03-22 20:47:00,
2013-03-22 16:52:00,37.6,18.7,29.86,WNW,297,7.8,9.2,46,0.00,,---,0.00,VWS V14.01,2013-03-22 20:52:00,
2013-03-22 16:58:00,37.6,18.7,29.86,WSW,252,3.1,11.2,46,0.00,,---,0.00,VWS V14.01,2013-03-22 20:58:00,
2013-03-22 17:03:00,37.6,18.7,29.86,West,264,5.8,10.5,46,0.00,,---,0.00,VWS V14.01,2013-03-22 21:03:00,
2013-03-22 17:08:00,37.6,18.7,29.86,WNW,282,10.5,11.2,46,0.00,,---,0.00,VWS V14.01,2013-03-22 21:08:00,
2013-03-22 17:13:00,37.4,18.5,29.86,NW,304,7.8,18.1,46,0.00,,---,0.00,VWS V14.01,2013-03-22 21:13:00,
2013-03-22 17:18:00,37.0,18.2,29.86,WNW,299,7.4,11.6,46,0.00,,---,0.00,VWS V14.01,2013-03-22 21:18:00,
2013-03-22 17:23:00,37.0,18.2,29.86,NW,313,10.5,15.2,46,0.00,,---,0.00,VWS V14.01,2013-03-22 21:23:00,
2013-03-22 17:28:00,36.9,18.0,29.86,NW,311,13.0,14.8,46,0.00,,---,0.00,VWS V14.01,2013-03-22 21:28:00,
2013-03-22 17:33:00,36.7,17.9,29.86,WNW,301,6.7,11.2,46,0.00,,---,0.00,VWS V14.01,2013-03-22 21:33:00,
2013-03-22 17:37:00,36.9,18.0,29.86,West,280,6.9,10.5,46,0.00,,---,0.00,VWS V14.01,2013-03-22 21:37:00,
2013-03-22 17:42:00,36.9,18.0,29.86,WNW,289,9.2,13.0,46,0.00,,---,0.00,VWS V14.01,2013-03-22 21:42:00,
2013-03-22 17:47:00,36.7,17.9,29.86,WNW,298,6.3,11.0,46,0.00,,---,0.00,VWS V14.01,2013-03-22 21:47:00,
2013-03-22 17:52:00,36.5,18.2,29.86,WNW,298,6.7,13.0,47,0.00,,---,0.00,VWS V14.01,2013-03-22 21:52:00,
2013-03-22 17:58:00,36.3,18.0,29.86,WNW,289,6.9,17.2,47,0.00,,---,0.00,VWS V14.01,2013-03-22 21:58:00,
2013-03-22 18:02:00,36.1,17.9,29.86,North,6,6.7,12.1,47,0.00,,---,0.00,VWS V14.01,2013-03-22 22:02:00,
2013-03-22 18:07:00,36.0,17.7,29.89,WNW,291,11.2,19.0,47,0.00,,---,0.00,VWS V14.01,2013-03-22 22:07:00,
2013-03-22 18:12:00,35.8,17.5,29.89,WNW,299,5.8,11.0,47,0.00,,---,0.00,VWS V14.01,2013-03-22 22:12:00,
2013-03-22 18:17:00,35.8,17.5,29.89,WNW,286,9.2,11.6,47,0.00,,---,0.00,VWS V14.01,2013-03-22 22:17:00,
2013-03-22 18:22:00,35.6,17.4,29.89,West,274,6.9,11.6,47,0.00,,---,0.00,VWS V14.01,2013-03-22 22:22:00,
2013-03-22 18:27:00,35.4,17.2,29.89,ENE,62,13.9,14.3,47,0.00,,---,0.00,VWS V14.01,2013-03-22 22:27:00,
2013-03-22 18:32:00,35.2,17.0,29.89,WNW,296,12.5,12.5,47,0.00,,---,0.00,VWS V14.01,2013-03-22 22:32:00,
2013-03-22 18:38:00,35.1,16.9,29.89,WNW,302,8.7,13.4,47,0.00,,---,0.00,VWS V14.01,2013-03-22 22:38:00,
2013-03-22 18:43:00,34.9,16.7,29.89,West,281,6.7,10.1,47,0.00,,---,0.00,VWS V14.01,2013-03-22 22:43:00,
2013-03-22 18:48:00,34.7,16.5,29.89,WNW,299,8.7,11.0,47,0.00,,---,0.00,VWS V14.01,2013-03-22 22:48:00,
2013-03-22 18:53:00,34.5,16.4,29.89,WSW,250,7.8,10.5,47,0.00,,---,0.00,VWS V14.01,2013-03-22 22:53:00,
2013-03-22 18:58:00,34.3,16.2,29.89,West,278,6.7,11.6,47,0.00,,---,0.00,VWS V14.01,2013-03-22 22:58:00,
2013-03-22 19:03:00,34.2,17.5,29.89,NW,305,7.4,9.2,50,0.00,,---,0.00,VWS V14.01,2013-03-22 23:03:00,
2013-03-22 19:08:00,34.0,17.3,29.92,NW,322,4.5,7.4,50,0.00,,---,0.00,VWS V14.01,2013-03-22 23:08:00,
2013-03-22 19:13:00,33.8,17.1,29.92,West,267,9.2,12.1,50,0.00,,---,0.00,VWS V14.01,2013-03-22 23:13:00,
2013-03-22 19:18:00,33.4,16.8,29.92,West,269,5.8,8.3,50,0.00,,---,0.00,VWS V14.01,2013-03-22 23:18:00,
2013-03-22 19:23:00,33.3,16.6,29.92,WNW,292,8.3,8.3,50,0.00,,---,0.00,VWS V14.01,2013-03-22 23:23:00,
2013-03-22 19:28:00,33.3,16.6,29.92,WNW,291,6.9,11.6,50,0.00,,---,0.00,VWS V14.01,2013-03-22 23:28:00,
2013-03-22 19:33:00,33.1,17.4,29.92,WSW,247,12.5,12.5,52,0.00,,---,0.00,VWS V14.01,2013-03-22 23:33:00,
2013-03-22 19:38:00,32.9,17.2,29.92,West,279,11.2,11.2,52,0.00,,---,0.00,VWS V14.01,2013-03-22 23:38:00,
2013-03-22 19:43:00,32.9,17.7,29.92,WSW,250,5.4,11.2,53,0.00,,---,0.00,VWS V14.01,2013-03-22 23:43:00,
2013-03-22 19:48:00,32.7,17.5,29.92,West,274,6.9,7.8,53,0.00,,---,0.00,VWS V14.01,2013-03-22 23:48:00,
2013-03-22 19:53:00,32.7,17.5,29.92,West,269,6.3,8.3,53,0.00,,---,0.00,VWS V14.01,2013-03-22 23:53:00,
2013-03-22 19:58:00,32.7,17.5,29.92,West,279,8.7,17.2,53,0.00,,---,0.00,VWS V14.01,2013-03-22 23:58:00,
2013-03-22 20:03:00,32.5,17.3,29.92,NW,324,7.8,11.2,53,0.00,,---,0.00,VWS V14.01,2013-03-23 00:03:00,
2013-03-22 20:08:00,32.5,17.3,29.92,West,259,6.9,6.9,53,0.00,,---,0.00,VWS V14.01,2013-03-23 00:08:00,
2013-03-22 20:13:00,32.5,17.3,29.92,West,276,12.5,12.5,53,0.00,,---,0.00,VWS V14.01,2013-03-23 00:13:00,
2013-03-22 20:18:00,32.5,17.3,29.92,WNW,285,8.7,9.2,53,0.00,,---,0.00,VWS V14.01,2013-03-23 00:18:00,
2013-03-22 20:23:00,32.4,17.1,29.92,West,262,4.0,11.0,53,0.00,,---,0.00,VWS V14.01,2013-03-23 00:23:00,
2013-03-22 20:28:00,32.4,17.1,29.92,West,261,7.4,11.2,53,0.00,,---,0.00,VWS V14.01,2013-03-23 00:28:00,
2013-03-22 20:33:00,32.4,17.1,29.92,NW,305,9.2,9.6,53,0.00,,---,0.00,VWS V14.01,2013-03-23 00:33:00,
2013-03-22 20:38:00,32.2,17.8,29.95,WNW,285,11.0,11.0,55,0.00,,---,0.00,VWS V14.01,2013-03-23 00:38:00,
2013-03-22 20:43:00,32.2,17.8,29.95,NW,313,7.8,7.8,55,0.00,,---,0.00,VWS V14.01,2013-03-23 00:43:00,
2013-03-22 20:48:00,32.2,17.8,29.95,NW,305,6.7,7.8,55,0.00,,---,0.00,VWS V14.01,2013-03-23 00:48:00,
2013-03-22 20:53:00,32.2,17.8,29.95,NW,304,4.9,9.2,55,0.00,,---,0.00,VWS V14.01,2013-03-23 00:53:00,
2013-03-22 20:58:00,32.2,17.8,29.95,NW,310,6.3,11.2,55,0.00,,---,0.00,VWS V14.01,2013-03-23 00:58:00,
2013-03-22 21:03:00,32.0,17.7,29.95,WNW,284,4.0,7.8,55,0.00,,---,0.00,VWS V14.01,2013-03-23 01:03:00,
2013-03-22 21:08:00,32.0,17.7,29.95,West,271,5.4,7.4,55,0.00,,---,0.00,VWS V14.01,2013-03-23 01:08:00,
2013-03-22 21:13:00,32.0,17.7,29.95,West,273,10.1,14.8,55,0.00,,---,0.00,VWS V14.01,2013-03-23 01:13:00,
2013-03-22 21:18:00,32.0,17.7,29.95,WNW,299,8.3,15.4,55,0.00,,---,0.00,VWS V14.01,2013-03-23 01:18:00,
2013-03-22 21:23:00,31.8,17.5,29.95,WNW,296,5.4,8.7,55,0.00,,---,0.00,VWS V14.01,2013-03-23 01:23:00,
2013-03-22 21:28:00,31.8,18.7,29.95,NNW,343,5.8,8.3,58,0.00,,---,0.00,VWS V14.01,2013-03-23 01:28:00,
2013-03-22 21:33:00,31.6,18.6,29.95,WSW,255,11.2,13.0,58,0.00,,---,0.00,VWS V14.01,2013-03-23 01:33:00,
2013-03-22 21:38:00,31.5,18.4,29.95,WNW,302,4.0,11.0,58,0.00,,---,0.00,VWS V14.01,2013-03-23 01:38:00,
2013-03-22 21:43:00,31.3,18.2,29.95,NNW,337,6.3,8.7,58,0.00,,---,0.00,VWS V14.01,2013-03-23 01:43:00,
2013-03-22 21:48:00,31.3,18.2,29.95,North,351,7.4,14.3,58,0.00,,---,0.00,VWS V14.01,2013-03-23 01:48:00,
2013-03-22 21:53:00,31.3,18.2,29.95,NW,322,6.3,11.6,58,0.00,,---,0.00,VWS V14.01,2013-03-23 01:53:00,
2013-03-22 21:58:00,31.3,18.2,29.95,WNW,293,7.4,13.9,58,0.00,,---,0.00,VWS V14.01,2013-03-23 01:58:00,
2013-03-22 22:03:00,31.3,18.2,29.95,NNW,333,10.1,13.0,58,0.00,,---,0.00,VWS V14.01,2013-03-23 02:03:00,
2013-03-22 22:08:00,31.3,18.2,29.95,West,274,4.9,8.3,58,0.00,,---,0.00,VWS V14.01,2013-03-23 02:08:00,
2013-03-22 22:13:00,31.3,18.2,29.95,WNW,293,7.8,14.8,58,0.00,,---,0.00,VWS V14.01,2013-03-23 02:13:00,
2013-03-22 22:18:00,31.3,18.2,29.95,NW,304,5.4,10.5,58,0.00,,---,0.00,VWS V14.01,2013-03-23 02:18:00,
2013-03-22 22:23:00,31.3,18.2,29.95,WSW,241,4.9,14.3,58,0.00,,---,0.00,VWS V14.01,2013-03-23 02:23:00,
2013-03-22 22:28:00,31.3,18.2,29.95,NW,321,7.8,11.6,58,0.00,,---,0.00,VWS V14.01,2013-03-23 02:28:00,
2013-03-22 22:33:00,31.3,18.2,29.95,North,351,6.7,6.7,58,0.00,,---,0.00,VWS V14.01,2013-03-23 02:33:00,
2013-03-22 22:38:00,31.1,18.1,29.95,NNW,330,7.4,10.5,58,0.00,,---,0.00,VWS V14.01,2013-03-23 02:38:00,
2013-03-22 22:43:00,30.9,17.9,29.95,NW,311,4.5,6.3,58,0.00,,---,0.00,VWS V14.01,2013-03-23 02:43:00,
2013-03-22 22:48:00,30.7,17.7,29.95,NW,305,6.9,11.2,58,0.00,,---,0.00,VWS V14.01,2013-03-23 02:48:00,
2013-03-22 22:53:00,30.7,17.7,29.95,NW,312,12.1,12.5,58,0.00,,---,0.00,VWS V14.01,2013-03-23 02:53:00,
2013-03-22 22:58:00,30.7,17.7,29.95,NW,318,6.7,7.4,58,0.00,,---,0.00,VWS V14.01,2013-03-23 02:58:00,
2013-03-22 23:03:00,30.7,17.7,29.95,WNW,302,9.2,10.1,58,0.00,,---,0.00,VWS V14.01,2013-03-23 03:03:00,
2013-03-22 23:08:00,30.7,17.7,29.95,West,264,7.4,7.4,58,0.00,,---,0.00,VWS V14.01,2013-03-23 03:08:00,
2013-03-22 23:13:00,30.7,17.7,29.95,WNW,289,3.1,4.0,58,0.00,,---,0.00,VWS V14.01,2013-03-23 03:13:00,
2013-03-22 23:18:00,30.9,17.9,29.95,NNW,328,7.4,7.8,58,0.00,,---,0.00,VWS V14.01,2013-03-23 03:18:00,
2013-03-22 23:23:00,30.9,17.9,29.95,NW,318,6.9,11.0,58,0.00,,---,0.00,VWS V14.01,2013-03-23 03:23:00,
2013-03-22 23:28:00,30.9,17.9,29.95,WNW,291,4.9,7.4,58,0.00,,---,0.00,VWS V14.01,2013-03-23 03:28:00,
2013-03-22 23:33:00,30.9,17.9,29.95,North,351,6.9,12.1,58,0.00,,---,0.00,VWS V14.01,2013-03-23 03:33:00,
2013-03-22 23:38:00,30.9,17.9,29.95,WNW,292,4.9,8.7,58,0.00,,---,0.00,VWS V14.01,2013-03-23 03:38:00,
2013-03-22 23:43:00,30.9,16.7,29.95,WNW,292,3.6,8.7,55,0.00,,---,0.00,VWS V14.01,2013-03-23 03:43:00,
2013-03-22 23:48:00,30.7,16.5,29.95,WNW,288,8.3,12.5,55,0.00,,---,0.00,VWS V14.01,2013-03-23 03:48:00,
2013-03-22 23:53:00,30.7,16.5,29.95,NNW,327,6.3,13.4,55,0.00,,---,0.00,VWS V14.01,2013-03-23 03:53:00,
2013-03-22 23:58:00,30.7,16.5,29.95,North,351,4.9,7.4,55,0.00,,---,0.00,VWS V14.01,2013-03-23 03:58:00,